This demonstration page uses our WeatherBlox Daily Observations layout. Learn more.

Left ArrowRight Arrow

Hourly Observations for March 29, 2021

Temp ( °F °C ) Dew Point ( °F °C ) Humidity (%) Winds ( mph kmh ) Pressure ( in mb ) Visibility ( mi km ) Precip ( " mm )
12:51 am 00:51 Clear 59 15 22 -5.6 24 24 SE 12 19 30.03 1017 10 16 N/A
1:51 am 01:51 Clear 52 11.1 22 -5.6 31 31 ESE 7 11 30.02 1017 10 16 N/A
2:51 am 02:51 Clear 52 11.1 22 -5.6 31 31 SE 9 15 29.98 1015 10 16 N/A
3:51 am 03:51 Clear 54 12.2 25 -3.9 33 33 ESE 9 15 29.95 1014 10 16 N/A
4:51 am 04:51 Clear 52 11.1 24 -4.4 34 34 SSE 9 15 29.95 1014 10 16 N/A
5:51 am 05:51 Clear 49 9.4 24 -4.4 38 38 SSE 9 15 29.94 1014 10 16 N/A
6:51 am 06:51 Sunny 53 11.7 25 -3.9 34 34 SE 12 19 29.95 1014 10 16 N/A
7:51 am 07:51 Sunny 60 15.6 26 -3.3 27 27 ESE 12 19 29.97 1015 10 16 N/A
8:51 am 08:51 Sunny 64 17.8 26 -3.3 24 24 ESE 9 15 29.95 1014 10 16 N/A
9:51 am 09:51 Sunny 70 21.1 26 -3.3 19 19 ESE 12 19 29.92 1013 10 16 N/A
10:51 am 10:51 Sunny 73 22.8 26 -3.3 17 17 SE 10 17 29.89 1012 10 16 N/A
11:51 am 11:51 Sunny 75 23.9 24 -4.4 15 15 SSE 10 17 29.84 1011 10 16 N/A
12:51 pm 12:51 Sunny 77 25 24 -4.4 14 14 VRB 3 6 29.80 1009 10 16 N/A
1:51 pm 13:51 Sunny 80 26.7 24 -4.4 13 13 VRB 6 9 29.75 1008 10 16 N/A
2:51 pm 14:51 Sunny 82 27.8 21 -6.1 10 10 VRB 5 7 29.71 1006 10 16 N/A
3:51 pm 15:51 Sunny 83 28.3 19 -7.2 9 9 VRB 6 9 29.68 1005 10 16 N/A
4:51 pm 16:51 Sunny 82 27.8 18 -7.8 9 9 N 3 6 29.66 1004 10 16 N/A
5:51 pm 17:51 Sunny 80 26.7 20 -6.7 10 10 NW 8 13 29.66 1004 10 16 N/A
6:51 pm 18:51 Clear 76 24.4 22 -5.6 13 13 NW 10 17 29.66 1004 10 16 N/A
7:51 pm 19:51 Clear 75 23.9 17 -8.3 11 11 WNW 13 20 29.67 1005 10 16 N/A
8:51 pm 20:51 Clear 73 22.8 16 -8.9 11 11 NW 15 24 29.68 1005 10 16 N/A
9:51 pm 21:51 Clear 71 21.7 16 -8.9 12 12 NW 13 20 29.67 1005 10 16 N/A
10:51 pm 22:51 Clear 72 22.2 14 -10 11 11 NW 16 26 29.67 1005 10 16 N/A
11:51 pm 23:51 Clear 70 21.1 14 -10 11 11 NW 15 24 29.67 1005 10 16 N/A

Powered by AerisWeather